• Em Portugal
  • Lista de países
  • Para 7 dias
  • Temperatura da água
  • Mapas de satélite
  • Mapa do tempo
  • Widgets de tempo
  • user-avatar
    Iniciar Sessão

    Previsão horária em Santiago del Estero

    Hoje, 22 Abril, Domingo

    Tempo Temperatura Precipitação Vento Pressão Humidade
    00:00 +29°C° 0 mm 4 m/s 739 mmHg 57%
    01:00 +29°C° 0 mm 4 m/s 739 mmHg 59%
    02:00 +28°C° 0 mm 4 m/s 738 mmHg 60%
    03:00 +28°C° 0 mm 4 m/s 738 mmHg 62%
    04:00 +27°C° 0 mm 4 m/s 738 mmHg 64%
    05:00 +27°C° 0 mm 4 m/s 738 mmHg 65%
    06:00 +27°C° 0 mm 4 m/s 738 mmHg 64%
    07:00 +28°C° 0 mm 5 m/s 739 mmHg 63%
    08:00 +28°C° 0 mm 6 m/s 739 mmHg 62%
    09:00 +30°C° 0 mm 6 m/s 739 mmHg 56%
    10:00 +33°C° 0 mm 7 m/s 739 mmHg 50%
    11:00 +35°C° 0 mm 7 m/s 739 mmHg 44%
    12:00 +36°C° 0 mm 7 m/s 739 mmHg 42%
    13:00 +38°C° 0 mm 6 m/s 738 mmHg 39%
    14:00 +39°C° 0 mm 6 m/s 737 mmHg 36%
    15:00 +39°C° 0 mm 5 m/s 737 mmHg 37%
    16:00 +39°C° 0 mm 5 m/s 737 mmHg 37%
    17:00 +37°C° 0 mm 4 m/s 737 mmHg 38%
    18:00 +35°C° 0 mm 3 m/s 737 mmHg 41%
    19:00 +34°C° 0 mm 3 m/s 738 mmHg 45%
    20:00 +31°C° 0 mm 2 m/s 738 mmHg 49%
    21:00 +30°C° 0 mm 2 m/s 739 mmHg 50%
    22:00 +30°C° 0 mm 2 m/s 739 mmHg 51%
    23:00 +29°C° 0 mm 2 m/s 740 mmHg 52%

    Amanhã, 23 Abril, Segunda-feira

    Tempo Temperatura Precipitação Vento Pressão Humidade
    00:00 +29°C° 0,1 mm 2 m/s 740 mmHg 54%
    01:00 +29°C° 0,1 mm 2 m/s 740 mmHg 55%
    02:00 +29°C° 0,1 mm 2 m/s 740 mmHg 56%
    03:00 +28°C° 0,9 mm 2 m/s 740 mmHg 62%
    04:00 +27°C° 0,9 mm 2 m/s 740 mmHg 67%
    05:00 +26°C° 0,9 mm 2 m/s 740 mmHg 73%
    06:00 +26°C° 0,7 mm 2 m/s 741 mmHg 73%
    07:00 +26°C° 0,7 mm 2 m/s 741 mmHg 72%
    08:00 +27°C° 0,7 mm 2 m/s 742 mmHg 72%
    09:00 +28°C° 0,6 mm 3 m/s 742 mmHg 67%
    10:00 +30°C° 0,6 mm 4 m/s 742 mmHg 61%
    11:00 +33°C° 0,6 mm 5 m/s 742 mmHg 56%
    12:00 +34°C° 0 mm 4 m/s 742 mmHg 52%
    13:00 +35°C° 0 mm 4 m/s 741 mmHg 48%
    14:00 +36°C° 0 mm 4 m/s 740 mmHg 44%
    15:00 +36°C° 0,1 mm 4 m/s 740 mmHg 45%
    16:00 +36°C° 0,1 mm 4 m/s 740 mmHg 45%
    17:00 +35°C° 0,1 mm 3 m/s 740 mmHg 46%
    18:00 +34°C° 0 mm 3 m/s 740 mmHg 48%
    19:00 +33°C° 0 mm 3 m/s 741 mmHg 50%
    20:00 +31°C° 0 mm 3 m/s 741 mmHg 52%
    21:00 +31°C° 0,1 mm 3 m/s 741 mmHg 55%
    22:00 +30°C° 0,1 mm 3 m/s 742 mmHg 57%
    23:00 +30°C° 0,1 mm 3 m/s 742 mmHg 60%

    Depois de amanhã, 24 Abril, Terça-feira

    Tempo Temperatura Precipitação Vento Pressão Humidade
    00:00 +29°C° 0,2 mm 2 m/s 742 mmHg 62%
    01:00 +29°C° 0,2 mm 2 m/s 742 mmHg 64%
    02:00 +28°C° 0,2 mm 2 m/s 741 mmHg 65%
    03:00 +28°C° 0,4 mm 3 m/s 741 mmHg 70%
    04:00 +27°C° 0,4 mm 3 m/s 741 mmHg 74%
    05:00 +26°C° 0,4 mm 4 m/s 741 mmHg 79%
    06:00 +27°C° 0 mm 4 m/s 741 mmHg 75%
    07:00 +27°C° 0 mm 4 m/s 742 mmHg 72%
    08:00 +28°C° 0 mm 4 m/s 742 mmHg 68%
    09:00 +30°C° 0 mm 5 m/s 742 mmHg 61%
    10:00 +33°C° 0 mm 5 m/s 742 mmHg 53%
    11:00 +35°C° 0 mm 6 m/s 742 mmHg 45%
    12:00 +35°C° 0 mm 6 m/s 742 mmHg 44%
    13:00 +36°C° 0 mm 6 m/s 741 mmHg 42%
    14:00 +37°C° 0 mm 5 m/s 740 mmHg 41%
    15:00 +36°C° 0 mm 4 m/s 740 mmHg 42%
    16:00 +36°C° 0 mm 3 m/s 740 mmHg 43%
    17:00 +36°C° 0 mm 2 m/s 740 mmHg 44%
    18:00 +35°C° 0 mm 2 m/s 740 mmHg 45%
    19:00 +34°C° 0 mm 2 m/s 740 mmHg 46%
    20:00 +32°C° 0 mm 2 m/s 741 mmHg 48%
    21:00 +31°C° 0 mm 2 m/s 741 mmHg 49%
    22:00 +31°C° 0 mm 2 m/s 741 mmHg 50%
    23:00 +30°C° 0 mm 2 m/s 742 mmHg 51%

    25 Abril, Quarta-feira

    Tempo Temperatura Precipitação Vento Pressão Humidade
    00:00 +30°C° 0 mm 2 m/s 741 mmHg 51%
    01:00 +30°C° 0 mm 2 m/s 741 mmHg 51%
    02:00 +30°C° 0 mm 2 m/s 741 mmHg 51%
    03:00 +29°C° 0 mm 2 m/s 741 mmHg 52%
    04:00 +29°C° 0 mm 2 m/s 741 mmHg 53%
    05:00 +28°C° 0 mm 2 m/s 741 mmHg 53%
    06:00 +28°C° 0,7 mm 2 m/s 742 mmHg 57%
    07:00 +28°C° 0,7 mm 2 m/s 742 mmHg 60%
    08:00 +27°C° 0,7 mm 1 m/s 743 mmHg 64%
    09:00 +29°C° 0,2 mm 2 m/s 743 mmHg 59%
    10:00 +30°C° 0,2 mm 3 m/s 743 mmHg 54%
    11:00 +31°C° 0,2 mm 3 m/s 743 mmHg 49%
    12:00 +33°C° 0,1 mm 4 m/s 742 mmHg 45%
    13:00 +34°C° 0,1 mm 4 m/s 742 mmHg 42%
    14:00 +35°C° 0,1 mm 5 m/s 741 mmHg 39%
    15:00 +35°C° 0 mm 5 m/s 740 mmHg 40%
    16:00 +34°C° 0 mm 4 m/s 740 mmHg 41%
    17:00 +34°C° 0 mm 4 m/s 740 mmHg 42%
    18:00 +33°C° 0 mm 4 m/s 740 mmHg 45%
    19:00 +30°C° 0 mm 3 m/s 740 mmHg 48%
    20:00 +29°C° 0 mm 3 m/s 740 mmHg 51%
    21:00 +29°C° 0 mm 3 m/s 740 mmHg 51%
    22:00 +29°C° 0 mm 3 m/s 740 mmHg 51%
    23:00 +29°C° 0 mm 3 m/s 740 mmHg 51%

    26 Abril, Quinta-feira

    Tempo Temperatura Precipitação Vento Pressão Humidade
    00:00 +28°C° 0 mm 4 m/s 740 mmHg 51%
    01:00 +28°C° 0 mm 4 m/s 739 mmHg 51%
    02:00 +28°C° 0 mm 4 m/s 739 mmHg 50%
    03:00 +28°C° 0 mm 4 m/s 738 mmHg 51%
    04:00 +28°C° 0 mm 4 m/s 738 mmHg 51%
    05:00 +28°C° 0 mm 5 m/s 738 mmHg 51%
    06:00 +28°C° 0 mm 5 m/s 738 mmHg 50%
    07:00 +28°C° 0 mm 6 m/s 738 mmHg 50%
    08:00 +29°C° 0 mm 6 m/s 738 mmHg 49%
    09:00 +30°C° 0 mm 7 m/s 738 mmHg 45%
    10:00 +33°C° 0 mm 8 m/s 738 mmHg 40%
    11:00 +35°C° 0 mm 9 m/s 737 mmHg 36%
    12:00 +35°C° 0 mm 9 m/s 737 mmHg 35%
    13:00 +37°C° 0 mm 9 m/s 736 mmHg 33%
    14:00 +38°C° 0 mm 9 m/s 735 mmHg 32%
    15:00 +36°C° 0 mm 7 m/s 734 mmHg 34%
    16:00 +36°C° 0 mm 6 m/s 734 mmHg 35%
    17:00 +35°C° 0 mm 4 m/s 733 mmHg 37%
    18:00 +34°C° 0 mm 4 m/s 734 mmHg 38%
    19:00 +33°C° 0 mm 4 m/s 734 mmHg 40%
    20:00 +32°C° 0 mm 4 m/s 734 mmHg 41%
    21:00 +30°C° 0 mm 4 m/s 734 mmHg 42%
    22:00 +30°C° 0 mm 4 m/s 734 mmHg 42%
    23:00 +30°C° 0 mm 4 m/s 734 mmHg 43%

    27 Abril, Sexta-feira

    Tempo Temperatura Precipitação Vento Pressão Humidade
    00:00 +30°C° 0 mm 4 m/s 734 mmHg 44%
    01:00 +29°C° 0 mm 3 m/s 734 mmHg 45%
    02:00 +29°C° 0 mm 3 m/s 734 mmHg 47%
    03:00 +28°C° 0 mm 3 m/s 734 mmHg 49%
    04:00 +28°C° 0 mm 3 m/s 734 mmHg 51%
    05:00 +27°C° 0 mm 3 m/s 734 mmHg 52%
    06:00 +28°C° 0 mm 3 m/s 735 mmHg 52%
    07:00 +28°C° 0 mm 3 m/s 736 mmHg 52%
    08:00 +29°C° 0 mm 2 m/s 737 mmHg 53%
    09:00 +31°C° 0 mm 2 m/s 738 mmHg 49%
    10:00 +32°C° 0 mm 2 m/s 738 mmHg 45%
    11:00 +35°C° 0 mm 3 m/s 739 mmHg 41%
    12:00 +33°C° 0,1 mm 5 m/s 739 mmHg 45%
    13:00 +30°C° 0,1 mm 7 m/s 739 mmHg 49%
    14:00 +28°C° 0,1 mm 10 m/s 739 mmHg 53%
    15:00 +27°C° 0,2 mm 9 m/s 740 mmHg 53%
    16:00 +24°C° 0,2 mm 8 m/s 741 mmHg 54%
    17:00 +23°C° 0,2 mm 8 m/s 742 mmHg 54%
    18:00 +22°C° 0 mm 7 m/s 742 mmHg 52%
    19:00 +20°C° 0 mm 6 m/s 743 mmHg 50%
    20:00 +19°C° 0 mm 5 m/s 744 mmHg 47%
    21:00 +19°C° 0 mm 4 m/s 744 mmHg 47%
    22:00 +18°C° 0 mm 4 m/s 745 mmHg 46%
    23:00 +18°C° 0 mm 3 m/s 745 mmHg 46%
    Mostrar mais